Location: Chevoux
(46.3801°N, 4.9476°E)
Time: 17:04:35
(UTC+00:00)

Cosmos 2026 Rocket - Pass Details

Date: 28 January 2021
Orbit: 940 x 1000 km, 82.9° (Epoch: 28 February)

Event Time Altitude Azimuth Distance (km) Brightness Sun altitude
Rises 17:26:11 0° 169° (S) 3,615 7.1 -8.4°
Reaches altitude 10° 17:28:43 10° 164° (SSE) 2,681 6.3 -8.8°
Maximum altitude 17:34:36 50° 91° (E) 1,215 4.2 -9.8°
Drops below altitude 10° 17:40:36 10° 18° (NNE) 2,739 6.0 -10.8°
Sets 17:43:13 0° 13° (NNE) 3,700 6.8 -11.2°
